Location: Mahannah Oil Field
(37.4664°N, 96.6003°W)
Time: 03:14:44
(UTC+00:00)

deb Explorer IX - Pass Details

Date: 21 January 2021
Orbit: 537 x 1102 km, 38.8° (Epoch: 01 March)

Event Time Altitude Azimuth Distance (km) Brightness Sun altitude
Rises 22:29:04 0° 194° (SSW) 3,788 ? 11.2°
Reaches altitude 10° 22:33:21 10° 171° (S) 2,741 ? 10.5°
Maximum altitude 22:36:30 14° 142° (SE) 2,383 ? 9.9°
Drops below altitude 10° 22:39:30 10° 113° (ESE) 2,565 ? 9.5°
Sets 22:43:14 0° 89° (E) 3,374 ? 8.8°
